Location: Boursonne
(49.2024°N, 3.0468°E)
Time: 07:10:02
(UTC+00:00)

CZ-2C R/B - Pass Details

Date: 03 March 2021
Orbit: 784 x 871 km, 98.2° (Epoch: 12 April)

Event Time Altitude Azimuth Distance (km) Brightness Sun altitude
Rises 19:40:22 0° 10° (N) 3,440 5.9 -21.2°
Reaches altitude 10° 19:42:49 10° 6° (N) 2,489 5.3 -21.6°
Maximum altitude 19:48:08 51° 292° (WNW) 1,049 3.5 -22.4°
Drops below altitude 10° 19:53:19 10° 218° (SW) 2,417 5.3 -23.2°
Sets 19:55:40 0° 213° (SSW) 3,332 6.0 -23.6°
